Location: Brachbach
(49.1847°N, 9.7240°E)
Time: 07:54:12
(UTC+00:00)

FO-29 - Pass Details

Date: 14 March 2026
Orbit: 801 x 1320 km, 98.5° (Epoch: 17 April)

Event Time Altitude Azimuth Distance (km) Brightness Sun altitude
Rises 18:26:51 0° 22° (NNE) 4,098 12.6 -11.0°
Reaches altitude 10° 18:30:02 10° 35° (NE) 3,199 11.9 -11.5°
Maximum altitude 18:36:01 25° 89° (E) 2,325 10.9 -12.4°
Drops below altitude 10° 18:42:13 10° 142° (SE) 3,336 11.8 -13.4°
Sets 18:45:34 0° 154° (SSE) 4,309 12.5 -14.0°
